Adrian, MI

9:14 PM EDT on October 20, 2017 (GMT -0400)
Lenawee County

Weather History for KADG - January, 2014

Change the Weather History Date:

Monday, January 6, 2014

  Actual Average Record
Temperature  
Mean Temperature 2 °F -  
Max Temperature 19 °F 31 °F 55 °F (1998)
Min Temperature -16 °F 17 °F -16 °F (2014)
Degree Days  
Heating Degree Days 64    
Moisture  
Dew Point -6 °F    
Average Humidity 71    
Maximum Humidity 81    
Minimum Humidity 61    
Precipitation  
Precipitation 0.00 in - - ()
Sea Level Pressure  
Sea Level Pressure 29.96 in    
Wind  
Wind Speed 17 mph (WNW)    
Max Wind Speed 22 mph    
Max Gust Speed 32 mph    
Visibility 7 miles    
Events Snow    
Averages and records for this station are not official NWS values.
T = Trace of Precipitation, MM = Missing Value Source: NWS Daily Summary

Daily Weather History Graph

Daily Weather History Graph

Search for Another Location

Airport or City:

Trip Planner

Search our weather history database for the weather conditions in past years. The results will help you decide how hot, cold, wet, or windy it might be!

Date:

Astronomy

Jan. 06, 2014 Rise Set
Actual Time 8:03 AM EST 5:20 PM EST
Civil Twilight 7:32 AM EST 5:51 PM EST
Nautical Twilight 6:57 AM EST 6:26 PM EST
Astronomical Twilight 6:24 AM EST 7:00 PM EST
Moon 11:12 AM EST (1/6) 11:59 PM EST (1/6)
Length of Visible Light 10h 19m
Length of Day
9h 16m
Waxing Crescent, 34% of the Moon is Illuminated
Jan 6
Waxing Crescent
Jan 7
First Quarter
Jan 15
Full
Jan 24
Last Quarter
Jan 30
New

Hourly Weather History & Observations

Time (EST) Temp. Windchill Dew Point Humidity Pressure Visibility Wind Dir Wind Speed Gust Speed Precip Events Conditions
12:03 AM 19.4 °F 4.1 °F 14.0 °F 80% 29.62 in 2.5 mi NNW 18.4 mph 29.9 mph N/A   Haze
12:23 AM 19.4 °F 2.8 °F 14.0 °F 80% 29.62 in 3.0 mi NNW 21.9 mph 29.9 mph N/A   Haze
12:53 AM 18.0 °F 2.6 °F 12.9 °F 81% 29.67 in 5.0 mi NNW 17.3 mph 26.5 mph N/A   Haze
1:53 AM 16.0 °F 0.1 °F 10.9 °F 81% 29.71 in 9.0 mi NNW 17.3 mph 24.2 mph N/A   Mostly Cloudy
2:53 AM 15.1 °F -0.1 °F 9.0 °F 77% 29.77 in 10.0 mi NNW 15.0 mph 24.2 mph N/A   Scattered Clouds
3:53 AM 14.0 °F 0.5 °F 8.1 °F 77% 29.79 in 10.0 mi NW 11.5 mph - N/A   Partly Cloudy
4:53 AM 12.9 °F 0.7 °F 8.1 °F 81% 29.82 in 9.0 mi WNW 9.2 mph - 0.00 in Snow Light Snow
5:50 AM 14.0 °F 0.5 °F 6.8 °F 73% 29.79 in 8.0 mi WNW 11.5 mph - 0.00 in Snow Light Snow
5:53 AM 14.0 °F 2.9 °F 8.1 °F 77% 29.84 in 5.0 mi WNW 8.1 mph - 0.00 in Snow Light Snow
6:53 AM 10.0 °F -8.1 °F 3.0 °F 73% 29.88 in 4.0 mi WNW 18.4 mph 28.8 mph 0.00 in Snow Light Snow
7:35 AM 6.8 °F -12.9 °F -0.4 °F 72% 29.86 in 5.0 mi West 19.6 mph 31.1 mph 0.00 in Snow Light Snow
7:53 AM 7.0 °F -11.6 °F -0.9 °F 70% 29.92 in 7.0 mi West 17.3 mph 27.6 mph 0.00 in Snow Light Snow
8:53 AM 3.9 °F -15.0 °F -2.9 °F 73% 29.96 in 2.0 mi West 16.1 mph 25.3 mph 0.00 in Snow Light Snow
8:58 AM 3.2 °F -17.1 °F -2.2 °F 78% 29.91 in 1.5 mi West 18.4 mph 25.3 mph 0.00 in Snow Light Snow
9:14 AM 1.4 °F -17.6 °F -4.0 °F 78% 29.92 in 2.0 mi West 15.0 mph 26.5 mph 0.00 in Snow Light Snow
9:42 AM 1.4 °F -18.2 °F -5.8 °F 72% 29.93 in 4.0 mi West 16.1 mph 32.2 mph 0.00 in Snow Blowing Snow
9:53 AM -0.0 °F -21.3 °F -7.1 °F 72% 29.99 in 4.0 mi West 18.4 mph 27.6 mph 0.00 in Snow Blowing Snow
10:53 AM -4.0 °F -28.1 °F -11.9 °F 69% 30.02 in 8.0 mi West 21.9 mph 27.6 mph 0.00 in   Scattered Clouds
11:53 AM -5.1 °F -27.8 °F -14.1 °F 65% 30.01 in 6.0 mi West 18.4 mph 26.5 mph N/A   Haze
12:53 PM -4.0 °F -26.4 °F -13.0 °F 65% 30.01 in 9.0 mi West 18.4 mph 25.3 mph N/A   Clear
1:53 PM -6.0 °F -29.6 °F -15.0 °F 65% 30.02 in 5.0 mi West 19.6 mph 31.1 mph N/A   Haze
2:53 PM -7.1 °F -31.0 °F -16.1 °F 65% 30.05 in 4.0 mi West 19.6 mph 32.2 mph N/A   Haze
3:53 PM -9.0 °F -34.2 °F -18.0 °F 65% 30.09 in 4.0 mi West 20.7 mph 31.1 mph N/A   Haze
4:53 PM -11.0 °F -35.6 °F -20.0 °F 64% 30.12 in 7.0 mi West 18.4 mph 28.8 mph 0.00 in   Clear
5:53 PM -13.0 °F -36.0 °F -22.0 °F 64% 30.16 in 10.0 mi West 15.0 mph 25.3 mph 0.00 in   Clear
6:53 PM -14.1 °F -36.6 °F -24.0 °F 61% 30.19 in 10.0 mi West 13.8 mph 27.6 mph 0.00 in   Clear
7:53 PM -15.0 °F -38.5 °F -24.0 °F 64% 30.21 in 10.0 mi West 15.0 mph 20.7 mph 0.00 in   Clear
8:53 PM -16.1 °F -39.1 °F -24.0 °F 67% 30.21 in 10.0 mi West 13.8 mph 20.7 mph 0.00 in   Clear
9:53 PM -15.0 °F -38.5 °F -24.0 °F 64% 30.21 in 10.0 mi West 15.0 mph 20.7 mph 0.00 in   Clear
10:53 PM -15.0 °F -38.5 °F -23.1 °F 67% 30.22 in 10.0 mi West 15.0 mph 23.0 mph 0.00 in   Clear
11:53 PM -15.0 °F -35.9 °F -23.1 °F 67% 30.21 in 10.0 mi West 11.5 mph - 0.00 in   Clear